User: anonymous   Login
Location: ??????
(55.6500°N, 37.8000°E)
Time: 21:16:54
(UTC+00:00)
Language:

Cosmos 1151 Rocket - Orbit

View from above orbital plane
View from above orbital plane
View from above satellite
View from above satellite

Ground track
Ground track

The orbit data is extracted from the following two-line orbital elements,

1 11672U 80005B   24165.57028858  .00000788  00000-0  80071-4 0  9994
2 11672  82.5145 188.0947 0017692 114.5823 245.7241 14.89436461382048
Epoch (UTC): 13 June 2024 13:41:12
Eccentricity: 0.0017692
inclination: 82.5145°
perigee height: 587 km
apogee height: 612 km
right ascension of ascending node: 188.0947°
argument of perigee: 114.5823°
revolutions per day: 14.89436461
mean anomaly at epoch: 245.7241°
orbit number at epoch: 38204

The dashed part of the orbit path shows where the satellite is in the earth's shadow,  

DLR